TimePST,TemperatureF,Dew PointF,Humidity,Sea Level PressureIn,VisibilityMPH,Wind Direction,Wind SpeedMPH,Gust SpeedMPH,PrecipitationIn,Events,Conditions,WindDirDegrees,DateUTC
12:54 AM,42.1,30.9,65,30.10,-9999.0,North,5.8,-,N/A,,Clear,350,2013-12-06 08:54:00
1:54 AM,42.1,28.9,60,30.10,-9999.0,North,6.9,-,N/A,,Clear,10,2013-12-06 09:54:00
2:54 AM,41.0,30.0,65,30.11,-9999.0,North,6.9,-,N/A,,Clear,360,2013-12-06 10:54:00
3:54 AM,39.9,28.0,63,30.11,-9999.0,North,6.9,-,N/A,,Clear,360,2013-12-06 11:54:00
4:54 AM,39.9,28.0,63,30.12,-9999.0,North,5.8,-,N/A,,Clear,10,2013-12-06 12:54:00
5:54 AM,39.0,28.0,65,30.12,7.0,North,8.1,-,N/A,,Clear,10,2013-12-06 13:54:00
6:54 AM,39.0,28.0,65,30.14,7.0,North,6.9,-,N/A,,Clear,360,2013-12-06 14:54:00
7:54 AM,44.1,30.0,58,30.15,7.0,North,6.9,-,N/A,,Partly Cloudy,10,2013-12-06 15:54:00
8:54 AM,50.0,33.1,52,30.17,-9999.0,North,5.8,-,N/A,,Clear,10,2013-12-06 16:54:00
9:54 AM,57.0,37.0,47,30.18,-9999.0,NNE,5.8,-,N/A,,Clear,20,2013-12-06 17:54:00
10:54 AM,60.1,37.9,44,30.17,-9999.0,Calm,Calm,-,N/A,,Clear,0,2013-12-06 18:54:00
11:54 AM,61.0,39.0,44,30.15,-9999.0,SW,5.8,-,N/A,,Partly Cloudy,220,2013-12-06 19:54:00
12:54 PM,61.0,39.9,46,30.14,-9999.0,West,6.9,-,N/A,,Clear,260,2013-12-06 20:54:00
1:54 PM,61.0,39.9,46,30.12,-9999.0,West,4.6,-,N/A,,Clear,270,2013-12-06 21:54:00
2:54 PM,60.1,39.9,47,30.11,-9999.0,WNW,8.1,-,N/A,,Clear,290,2013-12-06 22:54:00
3:54 PM,57.9,39.9,51,30.11,-9999.0,WNW,9.2,-,N/A,,Clear,290,2013-12-06 23:54:00
4:54 PM,53.1,39.0,59,30.11,-9999.0,WNW,5.8,-,N/A,,Clear,290,2013-12-07 00:54:00
5:54 PM,51.1,39.0,63,30.12,-9999.0,WNW,5.8,-,N/A,,Clear,290,2013-12-07 01:54:00
6:54 PM,48.9,37.9,66,30.13,-9999.0,NW,3.5,-,N/A,,Clear,320,2013-12-07 02:54:00
7:54 PM,46.9,37.0,68,30.13,-9999.0,Calm,Calm,-,N/A,,Clear,0,2013-12-07 03:54:00
8:54 PM,46.0,37.0,71,30.13,-9999.0,Calm,Calm,-,N/A,,Partly Cloudy,0,2013-12-07 04:54:00
9:54 PM,44.1,37.0,76,30.13,-9999.0,NNE,5.8,-,N/A,,Clear,20,2013-12-07 05:54:00
10:54 PM,43.0,37.0,80,30.13,-9999.0,NNE,4.6,-,N/A,,Clear,20,2013-12-07 06:54:00
11:54 PM,42.1,36.0,79,30.12,-9999.0,North,6.9,-,N/A,,Clear,10,2013-12-07 07:54:00